VTVAN OBBI-OBBI

Flight info

Callsign VTVAN
Flight time 0h 3m
Altitude 2000
Route RIGHT HAND CKTS
Aircraft C172/L-V/N

Departure

Time 2026-05-07 17:45
Airport Bahrain International Airport (OBBI)

Arrival

Time 2026-05-07 17:49
Airport Bahrain International Airport (OBBI)
Time Latitude Longitude Altitude Speed Heading
2026-05-07 17:29 26.26326 50.64057 9 ft 0 kts 219°
2026-05-07 17:38 26.26320 50.64065 9 ft 4 kts 23°
2026-05-07 17:38 26.26336 50.64072 9 ft 1 kts 24°
2026-05-07 17:38 26.26365 50.64071 8 ft 5 kts 304°
2026-05-07 17:38 26.26380 50.64044 8 ft 5 kts 302°
2026-05-07 17:39 26.26419 50.64007 8 ft 10 kts
2026-05-07 17:39 26.26462 50.64083 8 ft 16 kts 123°
2026-05-07 17:39 26.26419 50.64163 8 ft 12 kts 125°
2026-05-07 17:39 26.26381 50.64230 8 ft 0 kts 121°
2026-05-07 17:41 26.26390 50.64264 8 ft 5 kts 47°
2026-05-07 17:41 26.26414 50.64283 8 ft 5 kts 32°
2026-05-07 17:41 26.26427 50.64293 8 ft 0 kts 33°
2026-05-07 17:44 26.26437 50.64300 8 ft 9 kts 33°
2026-05-07 17:44 26.26526 50.64327 7 ft 12 kts 324°
2026-05-07 17:44 26.26580 50.64243 7 ft 27 kts 303°
2026-05-07 17:44 26.26766 50.63932 21 ft 64 kts 315°
2026-05-07 17:45 26.27008 50.63483 145 ft 76 kts 304°
2026-05-07 17:45 26.27266 50.62919 232 ft 88 kts 311°
2026-05-07 17:45 26.27592 50.62439 532 ft 73 kts 320°
2026-05-07 17:45 26.28126 50.62358 616 ft 90 kts
2026-05-07 17:46 26.28604 50.62828 809 ft 99 kts 67°
2026-05-07 17:46 26.28417 50.63582 989 ft 111 kts 125°
2026-05-07 17:46 26.27919 50.64301 1018 ft 122 kts 126°
2026-05-07 17:46 26.27389 50.65074 1061 ft 127 kts 125°
2026-05-07 17:47 26.26857 50.65848 1140 ft 126 kts 124°
2026-05-07 17:47 26.26360 50.66669 1181 ft 129 kts 121°
2026-05-07 17:47 26.25883 50.67516 1294 ft 124 kts 119°
2026-05-07 17:47 26.25203 50.67853 1420 ft 113 kts 214°
2026-05-07 17:48 26.25038 50.67134 1014 ft 118 kts 298°
2026-05-07 17:48 26.25374 50.66337 559 ft 103 kts 303°
2026-05-07 17:48 26.25714 50.65729 325 ft 88 kts 308°
2026-05-07 17:48 26.26011 50.65204 179 ft 75 kts 309°
2026-05-07 17:49 26.26286 50.64730 53 ft 67 kts 311°
2026-05-07 17:49 26.26511 50.64350 8 ft 53 kts 310°
2026-05-07 17:49 26.26733 50.64075 20 ft 43 kts 298°
2026-05-07 17:49 26.26875 50.63774 38 ft 48 kts 300°
2026-05-07 17:50 26.27030 50.63394 72 ft 60 kts 311°
2026-05-07 17:50 26.27287 50.62985 161 ft 67 kts 314°
2026-05-07 17:50 26.27542 50.62544 303 ft 72 kts 310°
2026-05-07 17:50 26.27923 50.62202 484 ft 79 kts
2026-05-07 17:51 26.28188 50.62798 689 ft 102 kts 85°
2026-05-07 17:51 26.27953 50.63550 855 ft 110 kts 118°
2026-05-07 17:51 26.27529 50.64265 1031 ft 108 kts 122°
2026-05-07 17:51 26.27099 50.64970 1179 ft 110 kts 123°
2026-05-07 17:52 26.26676 50.65664 1332 ft 111 kts 119°
2026-05-07 17:52 26.26291 50.66413 1454 ft 112 kts 116°
2026-05-07 17:52 26.25890 50.67229 1408 ft 130 kts 115°
2026-05-07 17:52 26.25448 50.68135 1430 ft 134 kts 123°
2026-05-07 17:53 26.24841 50.68036 1587 ft 101 kts 274°
2026-05-07 17:53 26.24944 50.67190 1034 ft 104 kts 300°
2026-05-07 17:53 26.25372 50.66806 962 ft 86 kts 11°
2026-05-07 17:53 26.25674 50.67463 974 ft 115 kts 85°
2026-05-07 17:54 26.25518 50.68336 1073 ft 116 kts 98°
2026-05-07 17:54 26.25346 50.69175 1284 ft 106 kts 98°
2026-05-07 17:54 26.25060 50.69896 1515 ft 99 kts 149°
2026-05-07 17:54 26.24610 50.69500 1355 ft 112 kts 265°
2026-05-07 17:55 26.24382 50.68614 1006 ft 115 kts 267°
2026-05-07 17:55 26.24511 50.67831 759 ft 97 kts 300°
2026-05-07 17:55 26.24843 50.67221 590 ft 87 kts 307°
2026-05-07 17:55 26.25165 50.66681 445 ft 83 kts 307°
2026-05-07 17:56 26.25475 50.66158 314 ft 80 kts 307°
2026-05-07 17:56 26.25755 50.65668 233 ft 70 kts 307°
2026-05-07 17:56 26.26005 50.65217 125 ft 66 kts 311°
2026-05-07 17:56 26.26249 50.64796 59 ft 65 kts 310°
2026-05-07 17:57 26.26479 50.64413 9 ft 53 kts 310°
2026-05-07 17:57 26.26618 50.64201 8 ft 47 kts 314°
2026-05-07 17:57 26.26861 50.63831 27 ft 51 kts 293°
2026-05-07 17:57 26.26990 50.63456 129 ft 52 kts 308°
2026-05-07 17:58 26.27191 50.63080 205 ft 61 kts 310°
2026-05-07 17:58 26.27425 50.62700 372 ft 57 kts 318°
2026-05-07 17:58 26.27666 50.62353 484 ft 56 kts 320°
2026-05-07 17:58 26.27953 50.62265 596 ft 65 kts 33°
2026-05-07 17:59 26.28304 50.62671 730 ft 72 kts 34°
2026-05-07 17:59 26.28449 50.63189 879 ft 92 kts 109°
2026-05-07 17:59 26.28132 50.63847 1003 ft 101 kts 119°
2026-05-07 17:59 26.27730 50.64570 1073 ft 112 kts 118°
2026-05-07 18:00 26.27319 50.65309 1224 ft 113 kts 121°
2026-05-07 18:00 26.26856 50.66030 1335 ft 118 kts 122°
2026-05-07 18:00 26.26381 50.66832 1350 ft 128 kts 121°
2026-05-07 18:00 26.25887 50.67726 1278 ft 134 kts 119°
2026-05-07 18:01 26.25201 50.67956 1092 ft 105 kts 241°
2026-05-07 18:01 26.25083 50.67200 729 ft 103 kts 280°
2026-05-07 18:01 26.25267 50.66572 533 ft 76 kts 302°
2026-05-07 18:01 26.25512 50.66085 336 ft 69 kts 304°
2026-05-07 18:02 26.25988 50.65241 115 ft 61 kts 311°
2026-05-07 18:02 26.26212 50.64867 55 ft 57 kts 311°
2026-05-07 18:02 26.26411 50.64512 12 ft 51 kts 313°
2026-05-07 18:03 26.26602 50.64203 8 ft 51 kts 305°
2026-05-07 18:03 26.26812 50.63819 98 ft 58 kts 308°
2026-05-07 18:03 26.26998 50.63429 244 ft 58 kts 307°
2026-05-07 18:03 26.27212 50.63030 369 ft 65 kts 311°
2026-05-07 18:04 26.27449 50.62583 531 ft 68 kts 309°
2026-05-07 18:04 26.27817 50.62342 716 ft 68 kts 353°
2026-05-07 18:04 26.28228 50.62637 878 ft 85 kts 56°
2026-05-07 18:04 26.28088 50.63300 1021 ft 101 kts 124°
2026-05-07 18:05 26.27656 50.63961 1119 ft 108 kts 124°
2026-05-07 18:05 26.27224 50.64649 1251 ft 107 kts 121°
2026-05-07 18:05 26.26824 50.65352 1368 ft 109 kts 116°
2026-05-07 18:05 26.26459 50.66100 1448 ft 113 kts 113°
2026-05-07 18:06 26.26108 50.66969 1393 ft 129 kts 111°
2026-05-07 18:06 26.25711 50.67884 1396 ft 135 kts 114°
2026-05-07 18:06 26.25146 50.68703 1475 ft 129 kts 160°
2026-05-07 18:06 26.24474 50.68401 1488 ft 111 kts 262°
2026-05-07 18:07 26.24693 50.67575 1027 ft 108 kts 304°
2026-05-07 18:07 26.24992 50.67019 788 ft 68 kts 306°
2026-05-07 18:07 26.25216 50.66609 561 ft 56 kts 307°
2026-05-07 18:07 26.25406 50.66272 373 ft 49 kts 309°
2026-05-07 18:08 26.25607 50.65904 290 ft 60 kts 309°
2026-05-07 18:08 26.25843 50.65500 217 ft 64 kts 309°
2026-05-07 18:08 26.26090 50.65076 128 ft 67 kts 310°
2026-05-07 18:08 26.26338 50.64651 67 ft 61 kts 313°
2026-05-07 18:09 26.26558 50.64284 17 ft 52 kts 307°
2026-05-07 18:09 26.26735 50.63990 9 ft 35 kts 302°
2026-05-07 18:09 26.26835 50.63814 9 ft 20 kts 299°
2026-05-07 18:09 26.26874 50.63731 8 ft 17 kts 300°
2026-05-07 18:10 26.26944 50.63609 7 ft 11 kts 304°
2026-05-07 18:10 26.26968 50.63567 7 ft 9 kts 301°
2026-05-07 18:10 26.26984 50.63531 7 ft 4 kts 279°
2026-05-07 18:10 26.26967 50.63490 7 ft 4 kts 220°
2026-05-07 18:11 26.26954 50.63480 7 ft 1 kts 215°
2026-05-07 18:11 26.26936 50.63465 7 ft 9 kts 207°
2026-05-07 18:11 26.26885 50.63429 7 ft 4 kts 218°
2026-05-07 18:11 26.26875 50.63418 7 ft 1 kts 231°
2026-05-07 18:12 26.26883 50.63358 8 ft 7 kts 303°
2026-05-07 18:12 26.26900 50.63329 8 ft 6 kts 305°
2026-05-07 18:12 26.26920 50.63298 7 ft 4 kts 307°
2026-05-07 18:12 26.26935 50.63269 7 ft 6 kts 303°
2026-05-07 18:13 26.26966 50.63214 7 ft 8 kts 302°
2026-05-07 18:13 26.26993 50.63171 8 ft 5 kts 298°
2026-05-07 18:13 26.27006 50.63145 8 ft 2 kts 300°
2026-05-07 18:13 26.27038 50.63089 9 ft 12 kts 302°
2026-05-07 18:14 26.27070 50.63034 10 ft 6 kts 302°
2026-05-07 18:14 26.27087 50.63006 10 ft 3 kts 303°
2026-05-07 18:14 26.27101 50.62981 10 ft 7 kts 302°
2026-05-07 18:14 26.27123 50.62941 10 ft 0 kts 296°
2026-05-07 18:15 26.27139 50.62920 10 ft 13 kts 313°
2026-05-07 18:15 26.27195 50.62837 10 ft 12 kts 301°
2026-05-07 18:15 26.27231 50.62772 10 ft 8 kts 307°
2026-05-07 18:15 26.27257 50.62728 10 ft 5 kts 300°
2026-05-07 18:16 26.27270 50.62707 10 ft 1 kts 307°
2026-05-07 18:16 26.27294 50.62664 10 ft 13 kts 303°
2026-05-07 18:16 26.27358 50.62553 10 ft 21 kts 301°
2026-05-07 18:16 26.27391 50.62492 10 ft 0 kts 300°
2026-05-07 18:17 26.27408 50.62462 15 ft 13 kts 303°
2026-05-07 18:17 26.27463 50.62368 9 ft 8 kts 303°
2026-05-07 18:17 26.27485 50.62329 9 ft 2 kts 292°
2026-05-07 18:17 26.27475 50.62317 9 ft 1 kts 208°
2026-05-07 18:18 26.27414 50.62277 9 ft 0 kts 210°
2026-05-07 18:18 26.27414 50.62278 9 ft 0 kts 210°